Weather History for Salamanca, Spain

Change the Weather History Date:

Friday, December 20, 2013

  Actual Average Record
Temperature  
Mean Temperature 34 °F -  
Max Temperature 44 °F - - ()
Min Temperature 24 °F - - ()
Degree Days  
Heating Degree Days 31    
Moisture  
Dew Point 28 °F    
Average Humidity 81    
Maximum Humidity 100    
Minimum Humidity 44    
Precipitation  
Precipitation 0.00 in 0.05 in - ()
Sea Level Pressure  
Sea Level Pressure 30.41 in    
Wind  
Wind Speed 4 mph ()    
Max Wind Speed 10 mph    
Max Gust Speed -    
Visibility 8.0 miles    
Events      
T = Trace of Precipitation, MM = Missing Value Source: Averaged Metar Reports

Daily Weather History Graph

Daily Weather History Graph

Search for Another Location

Airport:

Trip Planner

Search our weather history database for the weather conditions in past years. The results will help you decide how hot, cold, wet, or windy it might be!

Date:

Astronomy

Dec. 20, 2013 Rise Set
Actual Time 8:42 AM CET 5:56 PM CET
Civil Twilight 8:11 AM CET 6:27 PM CET
Nautical Twilight 7:37 AM CET 7:02 PM CET
Astronomical Twilight 7:03 AM CET 7:35 PM CET
Moon 9:05 PM CET 10:27 AM CET
Length of Visible Light 10h 16m
Length of Day
9h 13m
Waning Gibbous, 92% of the Moon is Illuminated
Dec 20
Waning Gibbous
Dec 25
Last Quarter
Jan 1
New
Jan 8
First Quarter
Jan 16
Full

Hourly Weather History & Observations

Time (CET) Temp. Windchill Dew Point Humidity Pressure Visibility Wind Dir Wind Speed Gust Speed Precip Events Conditions
12:00 AM 32 °F - 30 °F 90%  in - WNW 5.8 mph - -  
12:00 AM 32.0 °F 26.4 °F 30.2 °F 93% 30.18 in 6.2 mi WNW 5.8 mph - N/A   Partly Cloudy
12:30 AM 30.2 °F 26.7 °F 28.4 °F 93% 30.21 in - West 3.5 mph - N/A   Clear
1:00 AM 29 °F - 28 °F 93%  in 9 mi WSW 6.9 mph - -   Scattered Clouds
1:00 AM 30.2 °F 23.4 °F 28.4 °F 93% 30.21 in - WSW 6.9 mph - N/A   Clear
1:30 AM 32.0 °F 27.5 °F 30.2 °F 93% 30.24 in - WNW 4.6 mph - N/A   Clear
2:00 AM 30 °F - 28 °F 88%  in - SSW 2.3 mph - -  
2:00 AM 30.2 °F - 28.4 °F 93% 30.24 in - Variable 2.3 mph - N/A   Clear
2:30 AM 30.2 °F 25.4 °F 28.4 °F 93% 30.24 in - NW 4.6 mph - N/A   Clear
3:00 AM 29 °F - 27 °F 89%  in - Calm Calm - -  
3:00 AM 30.2 °F - 26.6 °F 86% 30.24 in - Calm Calm - N/A   Clear
3:30 AM 30.2 °F 25.4 °F 28.4 °F 93% 30.27 in - WNW 4.6 mph - N/A   Clear
4:00 AM 27 °F - 26 °F 92%  in 9 mi SSE 5.8 mph - -  
4:30 AM 30.2 °F 26.7 °F 28.4 °F 93% 30.30 in - Variable 3.5 mph - N/A   Clear
5:00 AM 29 °F - 26 °F 84%  in - WNW 5.8 mph - -  
5:00 AM 30.2 °F 24.3 °F 26.6 °F 86% 30.30 in - WNW 5.8 mph - N/A   Clear
5:30 AM 28.4 °F 21.2 °F 26.6 °F 93% 30.33 in - West 6.9 mph - N/A   Clear
6:00 AM 28 °F - 26 °F 88%  in - WSW 8.1 mph - -  
6:00 AM 28.4 °F 21.2 °F 26.6 °F 93% 30.33 in - WSW 6.9 mph - N/A   Clear
6:30 AM 30.2 °F 22.6 °F 26.6 °F 86% 30.36 in - West 8.1 mph - N/A   Clear
7:00 AM 29 °F - 26 °F 86%  in 9 mi West 9.2 mph - -  
7:00 AM 30.2 °F 22.6 °F 26.6 °F 86% 30.36 in - WNW 8.1 mph - N/A   Clear
7:30 AM 28.4 °F 22.2 °F 26.6 °F 93% 30.39 in - WNW 5.8 mph - N/A   Clear
8:00 AM 28 °F - 26 °F 89%  in - WNW 9.2 mph - -  
8:00 AM 28.4 °F 19.7 °F 26.6 °F 93% 30.39 in - WNW 9.2 mph - N/A   Clear
8:30 AM 28.4 °F 21.2 °F 26.6 °F 93% 30.39 in - NW 6.9 mph - N/A   Clear
9:00 AM 27 °F - 25 °F 90%  in - WNW 4.6 mph - -  
9:00 AM 26.6 °F 21.2 °F 24.8 °F 93% 30.42 in - NW 4.6 mph - N/A   Clear
9:30 AM 28.4 °F - 26.6 °F 93% 30.42 in - Calm Calm - N/A   Clear
10:00 AM 33 °F - 29 °F 80%  in 12 mi Calm Calm - -  
10:00 AM 33.8 °F - 28.4 °F 81% 30.45 in - Calm Calm - N/A   Clear
10:30 AM 32.0 °F - 28.4 °F 87% 30.45 in - Variable 2.3 mph - N/A   Clear
11:00 AM 35 °F - 29 °F 71%  in - SSE 1.2 mph - -  
11:00 AM 33.8 °F - 30.2 °F 87% 30.45 in - Variable 1.2 mph - N/A   Clear
11:30 AM 37.4 °F - 30.2 °F 75% 30.48 in - Calm Calm - N/A   Clear
12:00 PM 38 °F - 30 °F 65%  in - ENE 3.5 mph - -  
12:00 PM 39.2 °F 37.0 °F 30.2 °F 70% 30.48 in - ENE 3.5 mph - N/A   Clear
12:30 PM 39.2 °F 33.0 °F 32.0 °F 75% 30.48 in - NNE 9.2 mph - N/A   Clear
1:00 PM 41 °F - 30 °F 53%  in 12 mi NE 8.1 mph - -   Scattered Clouds
1:00 PM 41.0 °F 35.2 °F 32.0 °F 70% 30.45 in 6.2 mi NE 9.2 mph - N/A   Partly Cloudy
1:30 PM 42.8 °F 37.0 °F 32.0 °F 66% 30.45 in 6.2 mi ENE 10.4 mph - N/A   Partly Cloudy
2:00 PM 43 °F - 30 °F 48%  in - ENE 9.2 mph - -  
2:00 PM 42.8 °F 37.5 °F 32.0 °F 66% 30.45 in 6.2 mi East 9.2 mph - N/A   Partly Cloudy
2:30 PM 42.8 °F 38.0 °F 30.2 °F 61% 30.45 in 6.2 mi East 8.1 mph - N/A   Partly Cloudy
3:00 PM 44 °F - 31 °F 47%  in - NE 5.8 mph - -  
3:00 PM 42.8 °F 39.3 °F 32.0 °F 66% 30.45 in 6.2 mi NE 5.8 mph - N/A   Partly Cloudy
3:30 PM 44.6 °F 40.7 °F 28.4 °F 53% 30.45 in 6.2 mi East 6.9 mph - N/A   Partly Cloudy
4:00 PM 43 °F - 28 °F 44%  in 12 mi East 6.9 mph - -   Scattered Clouds
4:00 PM 42.8 °F 38.6 °F 28.4 °F 57% 30.45 in 6.2 mi East 6.9 mph - N/A   Partly Cloudy
4:30 PM 42.8 °F 38.6 °F 30.2 °F 61% 30.48 in 6.2 mi East 6.9 mph - N/A   Partly Cloudy
5:00 PM 43 °F - 29 °F 45%  in - East 8.1 mph - -  
5:00 PM 42.8 °F 38.6 °F 28.4 °F 57% 30.48 in 6.2 mi East 6.9 mph - N/A   Partly Cloudy
5:30 PM 41.0 °F 39.0 °F 30.2 °F 65% 30.48 in 6.2 mi ENE 3.5 mph - N/A   Partly Cloudy
6:00 PM 39 °F - 29 °F 58%  in - East 2.3 mph - -  
6:00 PM 39.2 °F - 30.2 °F 70% 30.48 in 6.2 mi Variable 1.2 mph - N/A   Partly Cloudy
6:30 PM 35.6 °F - 28.4 °F 75% 30.48 in 6.2 mi Calm Calm - N/A   Partly Cloudy
7:00 PM 33 °F - 29 °F 77%  in 12 mi NNE 2.3 mph - -   Clear
7:00 PM 32.0 °F - 28.4 °F 87% 30.48 in - Variable 2.3 mph - N/A   Clear
7:30 PM 32.0 °F - 28.4 °F 87% 30.51 in - Variable 1.2 mph - N/A   Clear
8:00 PM 30 °F - 27 °F 84%  in - NE 3.5 mph - -  
8:00 PM 30.2 °F - 28.4 °F 93% 30.51 in - Variable 2.3 mph - N/A   Clear
8:30 PM 30.2 °F - 28.4 °F 93% 30.51 in - Calm Calm - N/A   Clear
9:00 PM 28 °F - 25 °F 84%  in - SE 4.6 mph - -  
9:00 PM 26.6 °F 22.6 °F 24.8 °F 93% 30.51 in - South 3.5 mph - N/A   Clear
9:30 PM 26.6 °F - 26.6 °F 100% 30.48 in - Variable 2.3 mph - N/A   Clear
10:00 PM 26 °F - 25 °F 92%  in 12 mi SSW 1.2 mph - -   Clear
10:00 PM 26.6 °F - 24.8 °F 93% 30.51 in - Variable 1.2 mph - N/A   Clear
10:30 PM 24.8 °F - 24.8 °F 100% 30.51 in - Calm Calm - N/A   Clear
11:00 PM 25 °F - 23 °F 87%  in - SE 2.3 mph - -  
11:00 PM 24.8 °F - 23.0 °F 93% 30.51 in - Variable 2.3 mph - N/A   Clear
11:30 PM 26.6 °F 22.6 °F 24.8 °F 93% 30.48 in - SE 3.5 mph - N/A   Clear